Weather History for Sioux Falls, SD

Change the Weather History Date:

Tuesday, January 1, 2013

  Actual Average Record
Temperature  
Mean Temperature 14 °F 17 °F  
Max Temperature 21 °F 26 °F 55 °F (1998)
Min Temperature 7 °F 7 °F -32 °F (1974)
Degree Days  
Heating Degree Days 51 49  
Month to date heating degree days 51 49  
Since 1 July heating degree days 2991 3182  
Cooling Degree Days 0 0  
Month to date cooling degree days 0 0  
Year to date cooling degree days 0 0  
Moisture  
Dew Point 11 °F    
Average Humidity 83    
Maximum Humidity 92    
Minimum Humidity 73    
Precipitation  
Precipitation T in 0.02 in 1.59 in (1960)
Month to date precipitation T 0.02  
Year to date precipitation T 0.02  
Snow  
Snow T in 0.20 in 11.30 in (1960)
Month to date snowfall T 0.2  
Since 1 July snowfall 13.8 17.1  
Snow Depth 4.00 in    
Sea Level Pressure  
Sea Level Pressure 30.22 in    
Wind  
Wind Speed 7 mph (SSW)    
Max Wind Speed 15 mph    
Max Gust Speed 18 mph    
Visibility 8 miles    
Events Snow    
T = Trace of Precipitation, MM = Missing Value Source: NWS Daily Summary

Daily Weather History Graph

Daily Weather History Graph

Search for Another Location

Airport:

Trip Planner

Search our weather history database for the weather conditions in past years. The results will help you decide how hot, cold, wet, or windy it might be!

Date:

Astronomy

Jan. 01, 2013 Rise Set
Actual Time 8:00 AM CST 5:01 PM CST
Civil Twilight 7:27 AM CST 5:34 PM CST
Nautical Twilight 6:51 AM CST 6:10 PM CST
Astronomical Twilight 6:16 AM CST 6:44 PM CST
Moon 9:42 PM CST (1/1) 10:04 AM CST (1/1)
Length of Visible Light 10h 06m
Length of Day
9h 01m
Waning Gibbous, 83% of the Moon is Illuminated
Jan 1
Waning Gibbous
Jan 4
Last Quarter
Jan 11
New
Jan 18
First Quarter
Jan 26
Full

Hourly Weather History & Observations

Time (CST) Temp. Windchill Dew Point Humidity Pressure Visibility Wind Dir Wind Speed Gust Speed Precip Events Conditions
12:56 AM 8.1 °F -2.0 °F 1.9 °F 76% 30.32 in 10.0 mi SSW 5.8 mph - 0.00 in   Overcast
1:56 AM 7.0 °F -3.3 °F 1.0 °F 77% 30.32 in 10.0 mi South 5.8 mph - N/A   Overcast
2:56 AM 8.1 °F -0.5 °F 1.0 °F 73% 30.32 in 10.0 mi South 4.6 mph - N/A   Overcast
3:56 AM 9.0 °F -0.9 °F 3.0 °F 77% 30.32 in 10.0 mi SSW 5.8 mph - N/A   Overcast
4:56 AM 10.0 °F 3.6 °F 5.0 °F 80% 30.31 in 10.0 mi SSW 3.5 mph - N/A   Overcast
5:56 AM 10.9 °F 4.7 °F 6.1 °F 81% 30.31 in 10.0 mi SSW 3.5 mph - N/A   Overcast
6:33 AM 10.4 °F - 6.8 °F 85% 30.20 in 10.0 mi Calm Calm - N/A   Overcast
6:56 AM 10.9 °F 4.7 °F 6.1 °F 81% 30.30 in 10.0 mi South 3.5 mph - N/A   Overcast
7:56 AM 12.0 °F 2.7 °F 8.1 °F 84% 30.29 in 10.0 mi SSW 5.8 mph - N/A   Overcast
8:56 AM 12.9 °F 6.9 °F 9.0 °F 84% 30.29 in 10.0 mi South 3.5 mph - N/A   Overcast
9:56 AM 14.0 °F 3.9 °F 10.0 °F 84% 30.29 in 10.0 mi South 6.9 mph - N/A   Overcast
10:12 AM 15.8 °F 7.2 °F 10.4 °F 79% 30.19 in 10.0 mi SSW 5.8 mph - N/A   Overcast
10:56 AM 15.1 °F 4.2 °F 12.0 °F 88% 30.29 in 8.0 mi South 8.1 mph - N/A   Overcast
11:56 AM 17.1 °F 4.3 °F 14.0 °F 88% 30.26 in 7.0 mi SSW 11.5 mph - N/A   Overcast
12:56 PM 18.0 °F 6.1 °F 16.0 °F 92% 30.24 in 4.0 mi SSW 10.4 mph - 0.00 in Snow Light Snow
1:56 PM 19.0 °F 7.5 °F 17.1 °F 92% 30.21 in 8.0 mi SSW 10.4 mph - 0.00 in   Overcast
2:56 PM 19.9 °F 8.6 °F 17.1 °F 89% 30.19 in 10.0 mi SSW 10.4 mph - N/A   Overcast
3:56 PM 19.9 °F 9.3 °F 17.1 °F 89% 30.18 in 9.0 mi SSW 9.2 mph - N/A   Overcast
4:56 PM 19.9 °F 10.1 °F 18.0 °F 92% 30.17 in 7.0 mi SSW 8.1 mph - N/A   Overcast
5:56 PM 19.9 °F 11.1 °F 17.1 °F 89% 30.15 in 8.0 mi SSW 6.9 mph - N/A   Overcast
6:56 PM 19.9 °F 10.1 °F 18.0 °F 92% 30.14 in 8.0 mi SSW 8.1 mph - N/A   Overcast
7:56 PM 19.0 °F 6.8 °F 17.1 °F 92% 30.12 in 8.0 mi SSW 11.5 mph - N/A   Scattered Clouds
8:56 PM 17.1 °F 5.0 °F 15.1 °F 92% 30.11 in 7.0 mi SSW 10.4 mph - N/A   Partly Cloudy
9:56 PM 16.0 °F 5.3 °F 14.0 °F 92% 30.09 in 7.0 mi SSW 8.1 mph - N/A   Clear
10:56 PM 15.1 °F 9.4 °F 14.0 °F 95% 30.08 in 7.0 mi SW 3.5 mph - N/A   Clear
11:56 PM 15.1 °F 5.2 °F 12.9 °F 91% 30.06 in 7.0 mi SSW 6.9 mph - N/A   Clear